Terminal Aerodrome Forecast
Issued by NWS

Home | Current Version | Previous Version | Text Only | Print | Product List | Glossary On
Versions: 1 2 3 4 5 6 7 8 9 10 11 12 13 14 15 16 17 18 19 20
000
FTUS44 KHGX 301720
TAFLBX
TAF
KLBX 301720Z 3018/3118 00000KT P6SM SKC
     FM302100 14011KT P6SM VCSH SCT040
     FM310100 15004KT P6SM SCT250
     FM310900 18003KT 4SM BR OVC025
     FM311500 16005KT P6SM SCT030=

USA.gov is the U.S. government's official web portal to all federal, state and local government web resources and services.